Welcome to the New NWS' Forecast!
Most changes are behind the scenes, but click here for differences you might notice.
Latest weather observations around

San Jose, San Jose International Airport (KSJC)

Using English Units (Switch to International System of Units)
Date/ Time (PDT) Wind (mph) Vis. (mi) Weather Sky Cond. Temp (°F) Rel. Humidity Wind Chill (°F) Heat Index (°F) Pressure Precip. (in)
Air Dwpt 6 hour Altimeter (inHg) Sea level (inHg) 1 hr 3 hr 6 hr
Max Min
Jul 16 02:53 NW 5 10 Clear CLR 61 56     83%     29.97 29.96      
Jul 16 01:53 W 3 10 Clear CLR 61 56     83%     29.97 29.96      
Jul 16 00:53 NW 5 10 Clear CLR 63 57     81%     29.97 29.97      
Jul 15 23:53 Calm 10 Clear CLR 63 57     81%     29.98 29.97      
Jul 15 22:53 W 6 10 Clear CLR 63 57     81%     29.98 29.98      
Jul 15 21:53 WNW 8 10 Clear CLR 65 57     76%     29.97 29.96      
Jul 15 20:53 W 11 10 Mostly Clear FEW013 FEW050 67 58     73%     29.95 29.95      
Jul 15 19:53 W 9 10 Mostly Clear FEW050 70 58     66%     29.93 29.93      
Jul 15 18:53 WNW 11 10 Mostly Clear FEW040 73 58     59%   73 29.92 29.92      
Jul 15 17:53 W 13 10 Mostly Clear FEW040 75 57     54%   75 29.93 29.92      
Jul 15 16:53 WNW 11 10 Mostly Clear FEW040 76 58     54%   76 29.93 29.93      
Jul 15 15:53 WNW 13 10 Mostly Clear FEW040 77 58     52%   77 29.95 29.94      
Jul 15 14:53 NW 10 10 Clear CLR 77 58     52%   77 29.96 29.96      
Jul 15 13:53 NW 10 10 Clear CLR 76 58     54%   76 29.97 29.97      
Jul 15 12:53 WNW 10 10 Mostly Clear FEW019 75 58     55%   75 29.99 29.98      
Jul 15 11:53 NW 6 10 Mostly Clear FEW019 73 56     55%   73 29.99 29.99      
Jul 15 10:53 WNW 8 10 Mostly Clear FEW017 70 56     61%     29.99 29.99      
Jul 15 09:53 NW 6 10 Mostly Clear FEW017 66 56     70%     30 29.99      
Jul 15 09:34 WNW 6 10 Partly Cloudy SCT015 66 56     70%     30        
Jul 15 09:19 NW 6 10 Mostly Cloudy BKN015 66 56     70%     30.01        
Jul 15 08:53 WNW 6 10 Mostly Cloudy BKN014 64 56     75%     30.01 30.01      
Jul 15 07:53 W 5 10 Cloudy OVC012 62 56     80%     30 30      
Jul 15 06:53 Calm 10 Cloudy OVC011 62 56     80%     30 30      
Jul 15 05:53 Calm 10 Cloudy OVC010 61 57     87%     29.99 29.98      
Jul 15 04:53 NW 6 10 Cloudy OVC010 61 56     83%     29.99 29.98      
Jul 15 03:53 NNW 6 10 Cloudy OVC010 61 57     87%     29.99 29.98      
Jul 15 02:53 3 10 Cloudy OVC011 62 57     84%     29.99 29.98      
Jul 15 01:53 W 3 10 Cloudy OVC011 62 57     84%     30 29.99      
Jul 15 00:53 WNW 8 10 Cloudy OVC011 62 57     84%     30 30      
Jul 15 00:21 WNW 5 10 Mostly Cloudy BKN011 62 57     84%     30        
Jul 14 23:53 WNW 5 10 Partly Cloudy FEW006 SCT012 62 57     84%     30 30      
Jul 14 22:53 WNW 8 10 Partly Cloudy FEW007 SCT012 63 58     84%     30.01 30.01      
Jul 14 21:53 WNW 9 10 Mostly Clear FEW006 64 58     81%     30.01 30      
Jul 14 20:53 W 13 10 Mostly Clear FEW006 66 58     75%     29.98 29.98      
Jul 14 19:53 WNW 13 10 Mostly Clear FEW008 69 59     70%     29.98 29.97      
Jul 14 19:31 WNW 14 10 Mostly Clear FEW008 71 59     66%   71 29.97        
Jul 14 18:53 WNW 13 10 Mostly Clear FEW030 74 57     56%   74 29.96 29.96      
Jul 14 17:53 WNW 11 10 Mostly Clear FEW055 77 57     50%   77 29.96 29.96      
Jul 14 16:53 WNW 13 10 Mostly Clear FEW050 FEW070 79 58     49%   79 29.97 29.96      
Jul 14 15:53 WNW 15 10 Partly Cloudy FEW060 SCT090 79 57     47%   79 29.98 29.98      
Jul 14 14:53 WNW 14 10 Partly Cloudy FEW080 SCT100 79 59     50%   79 30 29.99      
Jul 14 13:53 NW 13 10 Partly Cloudy FEW080 SCT100 78 60     54%   78 30.01 30.01      
Jul 14 12:53 NNW 9 10 Partly Cloudy FEW080 SCT100 76 59     56%   76 30.02 30.02      
Jul 14 11:53 WNW 6 10 Partly Cloudy FEW021 SCT090 73 59     61%   73 30.04 30.04      
Jul 14 10:53 W 6 10 Mostly Clear FEW021 FEW090 69 58     68%     30.06 30.06      
Jul 14 10:41 WNW 9 10 Mostly Clear FEW015 69 58     68%     30.06        
Jul 14 09:53 NNW 5 10 Cloudy OVC010 67 59     76%     30.07 30.06      
Jul 14 08:53 NNW 6 10 Cloudy OVC010 65 59     81%     30.06 30.06      
Jul 14 07:53 NNW 6 10 Cloudy OVC010 65 59     81%     30.06 30.05      
Jul 14 06:53 NW 6 10 Cloudy OVC010 64 59     84%     30.05 30.05      
Jul 14 04:53 NW 5 10 Cloudy OVC011 63 59     87%     30.04 30.03      
Jul 14 04:44 NW 5 10 Mostly Cloudy BKN011 63 59     87%     30.04        
Jul 14 03:53 NW 7 10 Clear CLR 63 59     87%     30.04 30.04      
Jul 14 02:53 NW 7 10 Mostly Clear FEW010 64 59     84%     30.04 30.04      
Jul 14 00:53 WNW 8 10 Clear CLR 65 60     84%     30.04 30.04      
Jul 13 22:53 WNW 8 10 Clear CLR 67 60     79%     30.05 30.04      
Jul 13 21:53 W 8 10 Clear CLR 69 61     75%     30.03 30.03      
Jul 13 20:53 W 9 10 Mostly Clear FEW047 71 59     66%   71 30.01 30.01      
Jul 13 19:53 WNW 10 10 Clear CLR 74 59     60%   74 30 29.99      
Jul 13 18:53 WNW 10 10 Mostly Clear FEW045 78 59     52%   78 29.99 29.99      
Jul 13 17:53 WNW 13 10 Mostly Clear FEW060 79 59     50%   79 29.98 29.98      
Jul 13 17:27 WNW 14 10 Mostly Clear FEW006 80 59     49%   81 29.99        
Jul 13 16:53 WNW 15 10 Mostly Clear FEW080 80 60     51%   81 29.98 29.98      
Jul 13 15:53 WNW 15 10 Partly Cloudy FEW060 FEW080 SCT110 81 60     49%   82 29.99 29.98      
Jul 13 14:53 NW 13 10 Partly Cloudy FEW060 FEW080 SCT110 83 60     46%   83 30 29.99      
Jul 13 13:53 WNW 9 10 Mostly Cloudy FEW080 SCT110 BKN160 81 60     49%   82 30.01 30.01      
Jul 13 12:53 NW 7 10 Partly Cloudy FEW080 SCT110 81 61     51%   82 30.03 30.02      
Jul 13 11:53 WNW 7 10 Partly Cloudy SCT080 SCT110 77 61     58%   77 30.04 30.03      
Jul 13 10:53 NW 7 10 Partly Cloudy SCT080 SCT110 74 60     62%   74 30.04 30.04      
Jul 13 09:53 3 10 Mostly Cloudy FEW018 BKN080 BKN110 71 60     68%   71 30.04 30.04      
Jul 13 08:53 WNW 5 10 Mostly Cloudy FEW018 BKN080 BKN110 68 60     76%     30.05 30.04      
Jul 13 07:53 WNW 5 10 Mostly Cloudy FEW018 BKN080 BKN110 67 59     76%     30.03 30.03      
Jul 13 06:53 Calm 10 Mostly Cloudy FEW018 BKN080 BKN110 66 59     78%     30.02 30.01      
Jul 13 05:53 WNW 6 10 Mostly Cloudy FEW016 BKN080 BKN110 66 59     78%     30.01 30      
Jul 13 04:53 WNW 5 10 Clear CLR 66 59     78%     30 30      
Jul 13 03:53 WNW 6 10 Clear CLR 66 60     81%     30 30      
Jul 13 02:53 WNW 3 10 Clear CLR 67 59     76%     29.98 29.98      
Jul 13 00:53 WNW 7 10 Clear CLR 67 59     76%     29.99 29.99      
May 15 09:53 Calm 10 Cloudy FEW021 BKN028 OVC035 60 47     62%     30.05 30.05      
May 14 23:53 WNW 11 10 Mostly Cloudy FEW010 SCT024 BKN045 56 49     77%     30.01 30.01      
May 14 15:53 WNW 13 10 Mostly Clear FEW025 FEW032 67 51     57%     29.96 29.96      
May 14 08:53 Calm 10 Cloudy FEW012 BKN019 OVC024 59 49     69%     30 30      
May 13 19:31 NW 14 10 Mostly Clear FEW008 63 50     63%     29.97        
May 13 02:53 SE 11 10 Clear CLR 56 49     77%     29.95 29.95      
May 12 00:53 E 3 10 Clear CLR 63 49     60%     29.81 29.8      
Jun 11 20:53 WSW 13 10 Clear   58 45     62%     29.98 29.98      
Jun 10 18:53   10 Partly Cloudy FEW025 SCT037 SCT065 66 45     47%     29.93 29.93      
Jun 10 12:53   10 Partly Cloudy FEW015 SCT032 SCT050 69 47     45%     29.98 29.97      
Notice The following observation data may not be complete
Jun 10 03:34   10 Mostly Cloudy BKN023          %              
Jun 09 00:53 NW 5 10 Clear   64 61     90%     29.96 29.96      
Jun 08 16:53 ESE 8 10 Cloudy FEW009 BKN038 OVC075 70 58     66%     29.99 29.98     0
Jun 07 14:53   10 Mostly Cloudy FEW050 SCT090 BKN130 71 53     53%   70 29.92 29.91      
Jun 07 06:53 Calm 7 Mostly Cloudy FEW001 SCT007 BKN010 58 52     81%     29.93 29.92      
Jun 06 04:53 NW 5 9 Clear CLR 55 52     89%     29.93 29.92      
Jun 06 03:53 NNW 6 9 Clear CLR 56 52     87%     29.92 29.92      
Jun 05 20:53 W 9 10 Partly Cloudy FEW002 FEW065 SCT110 65 53     65%     29.89 29.88      
Jun 05 12:53 NW 10 10 Mostly Clear FEW035 FEW090 79 51     38%   78 29.89 29.88